Location: Asheville, NC
(35.6000°N, 82.5500°W)
Time: 01:53:45
(UTC-05:00)

Vanguard 2 - Pass Details

Date: 14 February 2018
Orbit: 553 x 2939 km, 32.9° (Epoch: 20 February)

Event Time Altitude Azimuth Distance (km) Brightness Sun altitude
Rises 22:30:54 0° 268° (W) 3,409 11.3 -52.2°
Enters shadow 22:31:13 - 268° (W) 3,276 11.2 -52.3°
Reaches altitude 10° 22:33:47 10° 265° (W) 2,222 - -52.8°
Maximum altitude 22:38:32 59° 186° (S) 683 - -53.6°
Drops below altitude 10° 22:42:25 10° 106° (ESE) 1,818 - -54.3°
Sets 22:44:34 0° 102° (ESE) 2,722 - -54.6°
